Regional Weather Roundup
Issued by NWS New Orleans/Baton Rouge, LA

Home | Current Version | Previous Version | Graphics & Text | Print | Product List | Glossary On
Versions: 1 2 3 4 5 6 7 8 9 10 11 12 13 14 15 16 17 18 19 20 21 22 23 24 25 26 27 28 29 30 31 32 33 34 35 36 37 38 39 40 41 42 43 44 45 46 47 48 49 50
908
ASUS44 KLIX 192205
RWRLIX
NEW ORLEANS REGIONAL WEATHER ROUNDUP
NATIONAL WEATHER SERVICE NEW ORLEANS LA
500 PM CDT SUN OCT 19 2014

NOTE: "FAIR" INDICATES FEW OR NO CLOUDS BELOW 12,000 FEET WITH NO
      SIGNIFICANT WEATHER AND/OR OBSTRUCTIONS TO VISIBILITY.
      SKY/WX - SKY CONDITION AND SIGNIFICANT WEATHER.
      TMP - AIR TEMPERATURE.     DP    - DEWPOINT TEMPERATURE.
      RH  - RELATIVE HUMIDITY.   PRES  - PRESSURE.
      HI  - HEAT INDEX.          WCI   - WIND CHILL INDEX.

*  THESE STATIONS ARE NOT NWS OR FAA STATIONS AND ARE NOT UNDER
   NWS QUALITY CONTROL.

LAZ038-040-048-061>063-065>067-069-192300-
SOUTHEAST LOUISIANA

CITY           SKY/WX    TMP DP  RH WIND       PRES   REMARKS
N.O. AUDUBON     N/A     73  58  59 MISG        N/A
N.O. INTL ARPT MOSUNNY   75  53  46 NE9       30.04F
N.O. LAKEFRONT SUNNY     75  55  49 E3        30.05F
N.O. DOWNTOWN*   N/A     73  52  46 CALM      30.05F
SLIDELL        SUNNY     76  54  46 NE5       30.04F
BATON ROUGE    SUNNY     76  54  46 N6        30.04F
BOOTHVILLE     SUNNY     74  65  73 NE9       30.04F
BELLE CHASSE   MOSUNNY   74  57  55 NE8       30.04S
BOGALUSA*        N/A     76  45  33 CALM      30.07S
NEW ROADS*       N/A     75  54  48 N3        30.05S
GONZALES*        N/A     76  57  51 E3        30.04S
HAMMOND*       SUNNY     77  50  38 E3        30.06F
HOUMA*         MOSUNNY   75  63  64 E6        30.03F
PORT FOURCHON* PTCLDY    75  66  73 NE12G17   30.05F

$$

MSZ070-080>082-192300-
SOUTHERN MISSISSIPPI

CITY           SKY/WX    TMP DP  RH WIND       PRES   REMARKS
MCCOMB         SUNNY     74  46  36 N6        30.06F
GULFPORT       SUNNY     74  53  48 S6        30.04S
BILOXI         SUNNY     73  54  50 S6        30.04F
PASCAGOULA     SUNNY     73  54  51 S6        30.05R

$$

COASTAL OBSERVATIONS
LAKE AND NEARSHORE STATIONS

STATION/POSITION TIME  TEMP    WIND        PRES    WAVE
                       AIR SEA DIR/SP/G            HT/PER
                 (UTC) (F)     (DEG/KT/KT) (MB)    (FT/S)
PASCAGOULA       2200   73     180/  6/  8 1017.0
WAVELAND YACHT   2200   71     160/  5/  7 1016.8
GRAND ISLE       2200   74 78   70/ 10/ 14 1017.5
SOUTHWEST PASS   2200   83 85              1016.8
NEW CANAL        2200   72 73   50/  5/  6 1017.9
SHELL BEACH      2200   71 71   90/  8/ 10 1017.5

OFFSHORE STATIONS

STATION/POSITION TIME  TEMP    WIND        PRES    WAVE
                       AIR SEA DIR/SP/G            HT/PER
                 (UTC) (F)     (DEG/KT/KT) (MB)    (FT/S)
64 S DAUPHIN ISL 2126   73 80   70/ 10/ 12 1017.5    3/ 6

$$




USA.gov is the U.S. government's official web portal to all federal, state and local government web resources and services.